This is the latest recevied weather packets stored in our database for station/object WE0DX-1. If no packets are shown the sender has not sent any weather packets the latest 10 day(s).
| Time | Temp. | Humidity | Pressure | Rain* | Wind** | Luminosity | Snow |
|---|---|---|---|---|---|---|---|
| 1778134550 | 8.33° C | 70% | 1017.1 hPa | 0 mm | - | 0 W/m² | - |
| 1778134248 | 8.33° C | 67% | 1016.7 hPa | 0 mm | - | 0 W/m² | - |
| 1778133946 | 8.89° C | 67% | 1017 hPa | 0 mm | - | 0 W/m² | - |
| 1778133642 | 8.89° C | 67% | 1017 hPa | 0 mm | - | 0 W/m² | - |
| 1778133337 | 9.44° C | 66% | 1016.9 hPa | 0 mm | - | 0 W/m² | - |
| 1778133034 | 9.44° C | 63% | 1017 hPa | 0 mm | - | 0 W/m² | - |
| 1778132730 | 9.44° C | 60% | 1017 hPa | 0 mm | - | 0 W/m² | - |
| 1778132427 | 10° C | 60% | 1017 hPa | 0 mm | - | 0 W/m² | - |
| 1778132125 | 10° C | 59% | 1017.1 hPa | 0 mm | - | 0 W/m² | - |
| 1778131824 | 10° C | 58% | 1017 hPa | 0 mm | - | 0 W/m² | - |
| 1778131521 | 10° C | 56% | 1017 hPa | 0 mm | - | 0 W/m² | - |
| 1778131217 | 10° C | 54% | 1016.7 hPa | 0 mm | - | 0 W/m² | - |
| 1778130915 | 10° C | 54% | 1017.2 hPa | 0 mm | - | 0 W/m² | - |
| 1778130612 | 10° C | 53% | 1016.9 hPa | 0 mm | - | 0 W/m² | - |
| 1778130308 | 10° C | 52% | 1016.7 hPa | 0 mm | - | 0 W/m² | - |
| 1778130005 | 10° C | 52% | 1016.8 hPa | 0 mm | - | 0 W/m² | - |
| 1778129701 | 10° C | 51% | 1016.8 hPa | 0 mm | - | 0 W/m² | - |
| 1778129399 | 10° C | 50% | 1016.9 hPa | 0 mm | - | 0 W/m² | - |
| 1778129095 | 10.56° C | 49% | 1017.2 hPa | 0 mm | - | 0 W/m² | - |
| 1778128792 | 10.56° C | 50% | 1016.9 hPa | 0 mm | - | 0 W/m² | - |
| 1778128488 | 10.56° C | 52% | 1016.9 hPa | 0 mm | - | 0 W/m² | - |
| 1778128184 | 10° C | 50% | 1016.9 hPa | 0 mm | - | 0 W/m² | - |
| 1778127881 | 10° C | 50% | 1017.1 hPa | 0 mm | - | 0 W/m² | - |
| 1778127577 | 10° C | 53% | 1017 hPa | 0 mm | - | 0 W/m² | - |
| 1778127274 | 10° C | 52% | 1017.2 hPa | 0 mm | - | 0 W/m² | - |
* Rain latest hour (hover to see other rain measurements)
** Current wind speed in m/s (hover to see current wind gust speed)